Dublin, Ireland

8:16 PM GMT on February 13, 2016 (GMT +0000)
Dublin

Weather History for 03969 - October, 2012

Change the Weather History Date:

Sunday, October 21, 2012

  Actual Average Record
Temperature  
Mean Temperature 47 °F -  
Max Temperature 56 °F 52 °F - ()
Min Temperature 38 °F 42 °F - ()
Degree Days  
Heating Degree Days 18    
Moisture  
Dew Point 46 °F    
Average Humidity 91    
Maximum Humidity 100    
Minimum Humidity 72    
Precipitation  
Precipitation 0.00 in 0.09 in - ()
Sea Level Pressure  
Sea Level Pressure 30.06 in    
Wind  
Wind Speed 6 mph ()    
Max Wind Speed 14 mph    
Max Gust Speed -    
Visibility 6.4 miles    
Events Fog    
T = Trace of Precipitation, MM = Missing Value Source: Averaged Metar Reports

Daily Weather History Graph

Daily Weather History Graph

Search for Another Location

Airport or City:

Trip Planner

Search our weather history database for the weather conditions in past years. The results will help you decide how hot, cold, wet, or windy it might be!

Date:

Astronomy

Oct. 21, 2012 Rise Set
Actual Time 8:03 AM IST 6:14 PM IST
Civil Twilight 7:28 AM IST 6:50 PM IST
Nautical Twilight 6:47 AM IST 7:30 PM IST
Astronomical Twilight 6:07 AM IST 8:11 PM IST
Moon 2:34 PM IST (10/21) 11:36 PM IST (10/21)
Length of Visible Light 11h 22m
Length of Day
10h 10m
Waxing Crescent, 42% of the Moon is Illuminated
Oct 21
Waxing Crescent
Oct 22
First Quarter
Oct 29
Full
Nov 7
Last Quarter
Nov 13
New

Hourly Weather History & Observations

Time (IST) Temp. Windchill Dew Point Humidity Pressure Visibility Wind Dir Wind Speed Gust Speed Precip Events Conditions
12:00 AM 48.2 °F - 46.4 °F 93% 30.01 in 6.2 mi SSE 5.8 mph - N/A   Scattered Clouds
12:30 AM 48.2 °F - 44.6 °F 87% 30.01 in 6.2 mi SSE 5.8 mph - N/A   Scattered Clouds
1:00 AM 45 °F - 43 °F 90% 30.02 in 22 mi SE 4.5 mph - -   Scattered Clouds
1:00 AM 46.4 °F 44.3 °F 42.8 °F 87% 30.01 in 6.2 mi SE 4.6 mph - N/A   Scattered Clouds
1:30 AM 41.0 °F 36.4 °F 39.2 °F 93% 30.01 in 6.2 mi ESE 6.9 mph - N/A   Scattered Clouds
2:00 AM 41.0 °F 37.1 °F 39.2 °F 93% 30.01 in 6.2 mi SE 5.8 mph - N/A   Scattered Clouds
2:30 AM 42.8 °F - 42.8 °F 100% 30.01 in 6.2 mi Variable 2.3 mph - N/A   Scattered Clouds
3:00 AM 46.4 °F 44.3 °F 44.6 °F 93% 30.01 in 6.2 mi SSE 4.6 mph - N/A   Partly Cloudy
3:30 AM 44.6 °F 43.1 °F 42.8 °F 93% 30.01 in 6.2 mi SE 3.5 mph - N/A   Partly Cloudy
4:00 AM 39.2 °F 35.0 °F 37.4 °F 93% 30.01 in 6.2 mi SE 5.8 mph - N/A   Partly Cloudy
4:30 AM 41.0 °F 39.0 °F 39.2 °F 93% 30.01 in 6.2 mi Variable 3.5 mph - N/A   Partly Cloudy
5:00 AM 41.0 °F 39.0 °F 39.2 °F 93% 30.01 in 6.2 mi SE 3.5 mph - N/A   Partly Cloudy
5:30 AM 46.4 °F 43.5 °F 46.4 °F 100% 30.01 in 6.2 mi SSE 5.8 mph - N/A   Partly Cloudy
6:00 AM 48.2 °F - 46.4 °F 93% 30.04 in 4.3 mi SSE 4.6 mph - N/A Fog Fog
6:30 AM 48.2 °F - 46.4 °F 93% 30.04 in 5.6 mi SSE 6.9 mph - N/A Fog Fog
7:00 AM 46 °F - 44 °F 92% 30.06 in 6 mi SSE 6.7 mph - - Fog Patches of Fog
7:00 AM 46.4 °F 43.5 °F 44.6 °F 93% 30.04 in 5.6 mi SSE 5.8 mph - N/A Fog Shallow Fog
7:30 AM 42.8 °F 41.1 °F 41.0 °F 93% 30.04 in 6.2 mi Variable 3.5 mph - N/A   Scattered Clouds
8:00 AM 44.6 °F 41.4 °F 42.8 °F 93% 30.04 in 6.2 mi East 5.8 mph - N/A   Mostly Cloudy
8:30 AM 44.6 °F 41.4 °F 44.6 °F 100% 30.06 in 6.2 mi SE 5.8 mph - N/A   Mostly Cloudy
9:00 AM 48.2 °F - 48.2 °F 100% 30.06 in 6.2 mi SE 4.6 mph - N/A   Mostly Cloudy
9:30 AM 50.0 °F - 48.2 °F 94% 30.06 in 6.2 mi SSE 9.2 mph - N/A   Mostly Cloudy
10:00 AM 51.8 °F - 50.0 °F 94% 30.06 in 6.2 mi SE 6.9 mph - N/A   Mostly Cloudy
10:30 AM 51.8 °F - 50.0 °F 94% 30.09 in 6.2 mi ESE 6.9 mph - N/A   Mostly Cloudy
11:00 AM 53.6 °F - 51.8 °F 94% 30.09 in 6.2 mi SE 9.2 mph - N/A   Mostly Cloudy
11:30 AM 53.6 °F - 51.8 °F 94% 30.09 in 6.2 mi SE 10.4 mph - N/A   Mostly Cloudy
12:00 PM 53.6 °F - 51.8 °F 94% 30.09 in 6.2 mi SSE 12.7 mph - N/A   Mostly Cloudy
12:30 PM 53.6 °F - 50.0 °F 88% 30.09 in 6.2 mi SE 10.4 mph - N/A   Mostly Cloudy
1:00 PM 55 °F - 50 °F 79% 30.10 in 31 mi SE 13.4 mph - -   Scattered Clouds
1:00 PM 55.4 °F - 50.0 °F 82% 30.09 in 6.2 mi SE 12.7 mph - N/A   Mostly Cloudy
1:30 PM 53.6 °F - 50.0 °F 88% 30.09 in 6.2 mi SE 12.7 mph - N/A   Mostly Cloudy
2:00 PM 55.4 °F - 46.4 °F 72% 30.06 in 6.2 mi SE 13.8 mph - N/A   Mostly Cloudy
2:30 PM 53.6 °F - 48.2 °F 82% 30.06 in 6.2 mi SE 12.7 mph - N/A   Mostly Cloudy
3:00 PM 55.4 °F - 50.0 °F 82% 30.06 in 6.2 mi SE 13.8 mph - N/A   Mostly Cloudy
3:30 PM 55.4 °F - 50.0 °F 82% 30.06 in 6.2 mi SE 13.8 mph - N/A   Mostly Cloudy
4:00 PM 55.4 °F - 48.2 °F 77% 30.06 in 6.2 mi SE 12.7 mph - N/A   Scattered Clouds
4:30 PM 53.6 °F - 48.2 °F 82% 30.06 in 6.2 mi SE 12.7 mph - N/A   Scattered Clouds
5:00 PM 53.6 °F - 48.2 °F 82% 30.06 in 6.2 mi ESE 12.7 mph - N/A   Scattered Clouds
5:30 PM 51.8 °F - 48.2 °F 88% 30.09 in 6.2 mi SE 11.5 mph - N/A   Scattered Clouds
6:00 PM 51.8 °F - 48.2 °F 88% 30.09 in 6.2 mi ESE 9.2 mph - N/A   Partly Cloudy
6:30 PM 50.0 °F - 46.4 °F 87% 30.09 in 6.2 mi ESE 5.8 mph - N/A   Partly Cloudy
7:00 PM 46 °F - 44 °F 88% 30.12 in 19 mi ESE 6.7 mph - -   Scattered Clouds
7:00 PM 46.4 °F 43.5 °F 44.6 °F 93% 30.09 in 6.2 mi ESE 5.8 mph - N/A   Partly Cloudy
7:30 PM 46.4 °F 45.2 °F 44.6 °F 93% 30.09 in 6.2 mi ESE 3.5 mph - N/A   Partly Cloudy
8:00 PM 44.6 °F 43.1 °F 42.8 °F 93% 30.12 in 6.2 mi East 3.5 mph - N/A   Partly Cloudy
8:30 PM 44.6 °F 42.2 °F 42.8 °F 93% 30.12 in 6.2 mi East 4.6 mph - N/A   Partly Cloudy
9:00 PM 41.0 °F - 41.0 °F 100% 30.12 in 6.2 mi North 2.3 mph - N/A   Partly Cloudy
9:30 PM 44.6 °F 43.1 °F 44.6 °F 100% 30.12 in 6.2 mi NNE 3.5 mph - N/A   Scattered Clouds
10:00 PM 46.4 °F 45.2 °F 46.4 °F 100% 30.12 in 6.2 mi NNE 3.5 mph - N/A Fog Patches of Fog
10:30 PM 44.6 °F 42.2 °F 42.8 °F 93% 30.12 in 6.2 mi NNE 4.6 mph - N/A Fog Patches of Fog
11:00 PM 42.8 °F 41.1 °F 42.8 °F 100% 30.12 in 6.2 mi Variable 3.5 mph - N/A Fog Patches of Fog
11:30 PM 44.6 °F 40.2 °F 44.6 °F 100% 30.12 in 6.2 mi East 8.1 mph - N/A Fog Patches of Fog